Location: Hamayl? Da??
(36.7028°N, 30.1716°E)
Time: 15:22:57
(UTC+00:00)

CZ-4B R/B - Pass Details

Date: 04 August 2024
Orbit: 807 x 881 km, 99.0° (Epoch: 11 September)

Event Time Altitude Azimuth Distance (km) Brightness Sun altitude
Exits shadow 18:03:06 - 171° (S) 3,365 5.9 -11.7°
Reaches altitude 10° 18:05:17 10° 173° (S) 2,516 5.3 -12.1°
Maximum altitude 18:10:52 71° 257° (WSW) 931 3.6 -13.0°
Drops below altitude 10° 18:16:32 10° 342° (NNW) 2,545 6.5 -13.9°
Sets 18:18:58 0° 344° (NNW) 3,486 7.2 -14.3°
